Hourly Weather Kismajo

Today, 25 July, Sunday

Time Temperature Precipitation Wind Pressure Humidity
00:00 +26°C° 0.1 mm 10 mps 760 mmHg 74%
01:00 +26°C° 0.1 mm 10 mps 760 mmHg 74%
02:00 +26°C° 0.1 mm 10 mps 759 mmHg 74%
03:00 +26°C° 0 mm 10 mps 759 mmHg 74%
04:00 +26°C° 0.1 mm 9 mps 759 mmHg 74%
05:00 +26°C° 0.1 mm 9 mps 759 mmHg 74%
06:00 +26°C° 0.1 mm 9 mps 760 mmHg 73%
07:00 +27°C° 0.1 mm 9 mps 760 mmHg 67%
08:00 +28°C° 0.1 mm 10 mps 760 mmHg 61%
09:00 +29°C° 0 mm 10 mps 761 mmHg 54%
10:00 +31°C° 0 mm 11 mps 761 mmHg 51%
11:00 +32°C° 0 mm 11 mps 760 mmHg 49%
12:00 +32°C° 0 mm 11 mps 760 mmHg 46%
13:00 +32°C° 0.1 mm 11 mps 760 mmHg 46%
14:00 +32°C° 0.1 mm 11 mps 759 mmHg 47%
15:00 +31°C° 0.1 mm 11 mps 759 mmHg 47%
16:00 +29°C° 0.1 mm 11 mps 759 mmHg 54%
17:00 +28°C° 0.1 mm 10 mps 759 mmHg 60%
18:00 +27°C° 0.1 mm 10 mps 758 mmHg 66%
19:00 +26°C° 0.1 mm 10 mps 759 mmHg 68%
20:00 +26°C° 0.1 mm 9 mps 760 mmHg 71%
21:00 +26°C° 0.1 mm 9 mps 760 mmHg 74%
22:00 +26°C° 0.2 mm 9 mps 760 mmHg 75%
23:00 +26°C° 0.2 mm 9 mps 760 mmHg 75%

Tomorrow, 26 July, Monday

Time Temperature Precipitation Wind Pressure Humidity
00:00 +24°C° 0.2 mm 9 mps 760 mmHg 76%
01:00 +24°C° 0.2 mm 9 mps 760 mmHg 76%
02:00 +24°C° 0.2 mm 9 mps 759 mmHg 77%
03:00 +24°C° 0.2 mm 9 mps 759 mmHg 77%
04:00 +24°C° 0.1 mm 9 mps 759 mmHg 77%
05:00 +24°C° 0.1 mm 8 mps 759 mmHg 77%
06:00 +24°C° 0.1 mm 8 mps 760 mmHg 77%
07:00 +27°C° 0.1 mm 8 mps 760 mmHg 71%
08:00 +28°C° 0.1 mm 8 mps 761 mmHg 65%
09:00 +29°C° 0.1 mm 9 mps 761 mmHg 58%
10:00 +31°C° 0.1 mm 9 mps 761 mmHg 56%
11:00 +31°C° 0.1 mm 9 mps 761 mmHg 53%
12:00 +32°C° 0.1 mm 9 mps 760 mmHg 50%
13:00 +32°C° 0.1 mm 9 mps 760 mmHg 51%
14:00 +31°C° 0.1 mm 9 mps 759 mmHg 52%
15:00 +31°C° 0.1 mm 9 mps 759 mmHg 53%
16:00 +29°C° 0 mm 9 mps 759 mmHg 57%
17:00 +28°C° 0 mm 9 mps 759 mmHg 61%
18:00 +27°C° 0 mm 8 mps 759 mmHg 66%
19:00 +27°C° 0 mm 8 mps 759 mmHg 68%
20:00 +27°C° 0 mm 8 mps 760 mmHg 71%
21:00 +26°C° 0 mm 8 mps 760 mmHg 74%
22:00 +26°C° 0.1 mm 8 mps 760 mmHg 75%
23:00 +26°C° 0.1 mm 8 mps 760 mmHg 75%

Day after tomorrow, 27 July, Tuesday

Time Temperature Precipitation Wind Pressure Humidity
00:00 +26°C° 0.1 mm 8 mps 760 mmHg 76%
01:00 +26°C° 0 mm 8 mps 759 mmHg 76%
02:00 +26°C° 0 mm 8 mps 759 mmHg 76%
03:00 +26°C° 0 mm 8 mps 759 mmHg 75%
04:00 +26°C° 0 mm 8 mps 759 mmHg 75%
05:00 +26°C° 0 mm 7 mps 759 mmHg 74%
06:00 +26°C° 0 mm 7 mps 759 mmHg 73%
07:00 +27°C° 0 mm 7 mps 760 mmHg 70%
08:00 +28°C° 0 mm 8 mps 760 mmHg 66%
09:00 +29°C° 0 mm 8 mps 761 mmHg 62%
10:00 +31°C° 0.2 mm 8 mps 760 mmHg 59%
11:00 +32°C° 0.2 mm 9 mps 760 mmHg 56%
12:00 +32°C° 0.2 mm 9 mps 760 mmHg 54%
13:00 +32°C° 0.1 mm 9 mps 759 mmHg 55%
14:00 +31°C° 0.1 mm 9 mps 759 mmHg 56%
15:00 +31°C° 0.1 mm 9 mps 758 mmHg 57%
16:00 +29°C° 0.1 mm 9 mps 758 mmHg 62%
17:00 +28°C° 0.1 mm 9 mps 758 mmHg 66%
18:00 +27°C° 0.1 mm 9 mps 758 mmHg 70%
19:00 +27°C° 0 mm 8 mps 759 mmHg 72%
20:00 +27°C° 0 mm 8 mps 759 mmHg 75%
21:00 +26°C° 0 mm 8 mps 759 mmHg 77%
22:00 +26°C° 0.1 mm 8 mps 759 mmHg 77%
23:00 +26°C° 0.1 mm 8 mps 759 mmHg 78%

28 July, Wednesday

Time Temperature Precipitation Wind Pressure Humidity
00:00 +26°C° 0.1 mm 8 mps 759 mmHg 78%
01:00 +26°C° 0 mm 8 mps 759 mmHg 78%
02:00 +26°C° 0 mm 8 mps 759 mmHg 79%
03:00 +26°C° 0 mm 8 mps 758 mmHg 79%
04:00 +26°C° 0.1 mm 7 mps 759 mmHg 79%
05:00 +26°C° 0.1 mm 7 mps 759 mmHg 80%
06:00 +26°C° 0.1 mm 7 mps 759 mmHg 80%
07:00 +27°C° 0.1 mm 8 mps 760 mmHg 73%
08:00 +28°C° 0.1 mm 8 mps 760 mmHg 66%
09:00 +29°C° 0.1 mm 8 mps 761 mmHg 59%
10:00 +31°C° 0 mm 8 mps 760 mmHg 56%
11:00 +32°C° 0 mm 9 mps 760 mmHg 53%
12:00 +32°C° 0 mm 9 mps 760 mmHg 50%
13:00 +32°C° 0 mm 9 mps 759 mmHg 53%
14:00 +31°C° 0 mm 9 mps 759 mmHg 57%
15:00 +29°C° 0 mm 8 mps 758 mmHg 61%
16:00 +28°C° 0 mm 8 mps 758 mmHg 64%
17:00 +28°C° 0 mm 8 mps 758 mmHg 66%
18:00 +27°C° 0 mm 8 mps 758 mmHg 69%
19:00 +27°C° 0 mm 8 mps 759 mmHg 72%
20:00 +27°C° 0 mm 8 mps 759 mmHg 75%
21:00 +26°C° 0 mm 8 mps 759 mmHg 79%
22:00 +26°C° 0 mm 8 mps 759 mmHg 78%
23:00 +26°C° 0 mm 8 mps 759 mmHg 78%

29 July, Thursday

Time Temperature Precipitation Wind Pressure Humidity
00:00 +26°C° 0 mm 8 mps 759 mmHg 78%
01:00 +26°C° 0.1 mm 7 mps 759 mmHg 78%
02:00 +26°C° 0.1 mm 7 mps 759 mmHg 78%
03:00 +26°C° 0.1 mm 7 mps 759 mmHg 78%
04:00 +26°C° 0.1 mm 7 mps 759 mmHg 78%
05:00 +26°C° 0.1 mm 7 mps 760 mmHg 78%
06:00 +26°C° 0.1 mm 7 mps 760 mmHg 78%
07:00 +27°C° 0.1 mm 8 mps 760 mmHg 73%
08:00 +28°C° 0.1 mm 8 mps 761 mmHg 68%
09:00 +29°C° 0.1 mm 8 mps 761 mmHg 62%
10:00 +31°C° 0 mm 9 mps 761 mmHg 58%
11:00 +32°C° 0 mm 9 mps 761 mmHg 53%
12:00 +33°C° 0 mm 9 mps 760 mmHg 49%
13:00 +32°C° 0 mm 9 mps 760 mmHg 50%
14:00 +32°C° 0 mm 9 mps 759 mmHg 51%
15:00 +32°C° 0 mm 9 mps 759 mmHg 52%
16:00 +31°C° 0 mm 8 mps 759 mmHg 57%
17:00 +29°C° 0 mm 8 mps 759 mmHg 63%
18:00 +28°C° 0 mm 8 mps 759 mmHg 68%
19:00 +27°C° 0 mm 8 mps 760 mmHg 71%
20:00 +27°C° 0 mm 8 mps 760 mmHg 73%
21:00 +26°C° 0 mm 8 mps 760 mmHg 76%
22:00 +26°C° 0.1 mm 8 mps 760 mmHg 77%
23:00 +26°C° 0.1 mm 8 mps 760 mmHg 77%

30 July, Friday

Time Temperature Precipitation Wind Pressure Humidity
00:00 +26°C° 0.1 mm 8 mps 760 mmHg 78%
01:00 +26°C° 0 mm 8 mps 760 mmHg 78%
02:00 +26°C° 0 mm 8 mps 760 mmHg 78%
03:00 +26°C° 0 mm 8 mps 759 mmHg 78%
04:00 +26°C° 0 mm 8 mps 760 mmHg 77%
05:00 +26°C° 0 mm 8 mps 760 mmHg 77%
06:00 +26°C° 0 mm 8 mps 761 mmHg 76%
07:00 +27°C° 0 mm 8 mps 761 mmHg 71%
08:00 +28°C° 0 mm 8 mps 762 mmHg 65%
09:00 +29°C° 0 mm 8 mps 762 mmHg 60%
10:00 +31°C° 0 mm 8 mps 762 mmHg 56%
11:00 +32°C° 0 mm 9 mps 762 mmHg 51%
12:00 +33°C° 0 mm 9 mps 762 mmHg 47%
13:00 +32°C° 0 mm 9 mps 761 mmHg 48%
14:00 +32°C° 0 mm 8 mps 761 mmHg 48%
15:00 +32°C° 0 mm 8 mps 760 mmHg 49%
16:00 +31°C° 0 mm 8 mps 760 mmHg 55%
17:00 +29°C° 0 mm 8 mps 760 mmHg 60%
18:00 +28°C° 0 mm 7 mps 760 mmHg 65%
19:00 +27°C° 0 mm 7 mps 760 mmHg 68%
20:00 +27°C° 0 mm 7 mps 760 mmHg 71%
21:00 +26°C° 0 mm 8 mps 761 mmHg 74%
22:00 +26°C° 0 mm 8 mps 761 mmHg 75%
23:00 +26°C° 0 mm 8 mps 761 mmHg 75%
Show more